South Beach, OR

8:24 PM PDT on August 26, 2016 (GMT -0700)
Newport Municipal

Weather History for KONP - April, 2013

Change the Weather History Date:

Saturday, April 6, 2013

  Actual Average Record
Temperature  
Mean Temperature 48 °F -  
Max Temperature 51 °F 51 °F 77 °F (2016)
Min Temperature 46 °F 41 °F 33 °F (2012)
Degree Days  
Heating Degree Days 16    
Moisture  
Dew Point 48 °F    
Average Humidity 96    
Maximum Humidity 100    
Minimum Humidity 87    
Precipitation  
Precipitation 0.40 in - - ()
Sea Level Pressure  
Sea Level Pressure 29.95 in    
Wind  
Wind Speed 17 mph (SSW)    
Max Wind Speed 32 mph    
Max Gust Speed 44 mph    
Visibility 3 miles    
Events Rain    
Averages and records for this station are not official NWS values.
T = Trace of Precipitation, MM = Missing Value Source: NWS Daily Summary

Daily Weather History Graph

Daily Weather History Graph

Search for Another Location

Airport or City:

Trip Planner

Search our weather history database for the weather conditions in past years. The results will help you decide how hot, cold, wet, or windy it might be!

Date:

Astronomy

Apr. 06, 2013 Rise Set
Actual Time 6:47 AM PDT 7:50 PM PDT
Civil Twilight 6:17 AM PDT 8:20 PM PDT
Nautical Twilight 5:42 AM PDT 8:55 PM PDT
Astronomical Twilight 5:04 AM PDT 9:33 PM PDT
Moon 4:42 AM PDT (4/6) 4:17 PM PDT (4/6)
Length of Visible Light 14h 02m
Length of Day
13h 02m
Waning Crescent, 14% of the Moon is Illuminated
Apr 6
Waning Crescent
Apr 10
New
Apr 18
First Quarter
Apr 25
Full
May 2
Last Quarter

Hourly Weather History & Observations

Time (PDT) Temp. Windchill Dew Point Humidity Pressure Visibility Wind Dir Wind Speed Gust Speed Precip Events Conditions
12:15 AM 50.0 °F - 50.0 °F 100% 29.87 in 4.0 mi SSW 23.0 mph 32.2 mph N/A   Overcast
12:35 AM 50.0 °F - 50.0 °F 100% 29.87 in 4.0 mi SSW 21.9 mph 27.6 mph N/A   Overcast
12:55 AM 50.0 °F - 50.0 °F 100% 29.87 in 4.0 mi SSW 17.3 mph - N/A   Overcast
1:15 AM 50.0 °F - 50.0 °F 100% 29.87 in 4.0 mi SSW 19.6 mph 26.5 mph N/A   Overcast
1:35 AM 50.0 °F - 50.0 °F 100% 29.86 in 4.0 mi SSW 18.4 mph 26.5 mph N/A   Overcast
1:55 AM 50.0 °F - 50.0 °F 100% 29.86 in 3.0 mi SSW 19.6 mph 25.3 mph N/A   Overcast
2:15 AM 50.0 °F - 50.0 °F 100% 29.85 in 3.0 mi SSW 17.3 mph 24.2 mph N/A   Overcast
2:35 AM 50.0 °F - 50.0 °F 100% 29.85 in 3.0 mi SSW 19.6 mph 26.5 mph N/A   Overcast
2:55 AM 50.0 °F - 50.0 °F 100% 29.87 in 3.0 mi SSW 20.7 mph 26.5 mph N/A   Overcast
3:15 AM 50.0 °F - 50.0 °F 100% - 3.0 mi SSW 19.6 mph 26.5 mph N/A   Overcast
3:35 AM 50.0 °F - 50.0 °F 100% 29.95 in 3.0 mi SSW 18.4 mph 24.2 mph N/A   Overcast
3:55 AM 50.0 °F - 50.0 °F 100% 29.96 in 3.0 mi SSW 18.4 mph 25.3 mph N/A   Overcast
4:15 AM 50.0 °F - 48.2 °F 94% 29.97 in 3.0 mi SSW 19.6 mph 26.5 mph N/A   Overcast
4:35 AM 50.0 °F - 50.0 °F 100% 29.97 in 4.0 mi SSW 17.3 mph 26.5 mph N/A   Overcast
4:55 AM 50.0 °F - 48.2 °F 94% 29.97 in 4.0 mi SSW 16.1 mph 25.3 mph N/A   Overcast
5:15 AM 50.0 °F - 48.2 °F 94% 29.97 in 3.0 mi SSW 16.1 mph 23.0 mph N/A   Overcast
5:35 AM 50.0 °F - 48.2 °F 94% 29.97 in 4.0 mi SSW 18.4 mph 25.3 mph N/A   Overcast
5:55 AM 50.0 °F - 48.2 °F 94% 29.98 in 4.0 mi SSW 18.4 mph 24.2 mph N/A   Overcast
6:15 AM 50.0 °F - 48.2 °F 94% 29.99 in 4.0 mi SSW 18.4 mph 24.2 mph N/A   Overcast
6:35 AM 50.0 °F - 48.2 °F 94% 29.99 in 4.0 mi SSW 15.0 mph 21.9 mph N/A   Overcast
6:55 AM 50.0 °F - 48.2 °F 94% 30.00 in 3.0 mi SSW 17.3 mph - N/A   Overcast
7:15 AM 50.0 °F - 48.2 °F 94% 30.00 in 3.0 mi SSW 16.1 mph 23.0 mph N/A   Overcast
7:35 AM 50.0 °F - 48.2 °F 94% 30.00 in 3.0 mi SSW 15.0 mph 20.7 mph N/A   Overcast
7:55 AM 50.0 °F - 48.2 °F 94% 30.01 in 2.5 mi SSW 15.0 mph 23.0 mph N/A   Overcast
8:15 AM 50.0 °F - 48.2 °F 94% 30.01 in 3.0 mi SSW 18.4 mph 23.0 mph N/A   Overcast
8:35 AM 50.0 °F - 48.2 °F 94% 30.02 in 3.0 mi SSW 18.4 mph 24.2 mph N/A   Overcast
8:55 AM 50.0 °F - 48.2 °F 94% 30.02 in 3.0 mi SSW 19.6 mph 24.2 mph N/A   Overcast
9:15 AM 50.0 °F - 50.0 °F 100% 30.02 in 3.0 mi SSW 16.1 mph 25.3 mph N/A   Overcast
9:35 AM 51.8 °F - 50.0 °F 94% 30.03 in 2.5 mi SSW 15.0 mph 21.9 mph N/A   Overcast
9:55 AM 51.8 °F - 50.0 °F 94% 30.03 in 2.5 mi SSW 17.3 mph 24.2 mph N/A   Overcast
10:15 AM 51.8 °F - 50.0 °F 94% 30.04 in 3.0 mi SSW 17.3 mph 20.7 mph N/A   Overcast
10:35 AM 51.8 °F - 50.0 °F 94% 30.04 in 2.5 mi SSW 16.1 mph - N/A   Overcast
10:55 AM 51.8 °F - 50.0 °F 94% 30.05 in 3.0 mi SSW 18.4 mph 21.9 mph N/A   Overcast
11:15 AM 51.8 °F - 50.0 °F 94% 30.05 in 3.0 mi SSW 15.0 mph - N/A Rain Light Rain
11:35 AM 46.4 °F 43.5 °F 42.8 °F 87% 30.03 in 7.0 mi SW 5.8 mph - 0.06 in   Overcast
11:55 AM 51.8 °F - 50.0 °F 94% 30.11 in 2.5 mi SSW 17.3 mph 23.0 mph 0.06 in   Overcast
12:15 PM 51.8 °F - 50.0 °F 94% 30.06 in 2.5 mi SSW 15.0 mph 23.0 mph N/A   Overcast
12:55 PM 51.8 °F - 50.0 °F 94% 30.06 in 3.0 mi SSW 19.6 mph 25.3 mph N/A   Overcast
1:15 PM 51.8 °F - 50.0 °F 94% 30.06 in 3.0 mi SSW 20.7 mph 24.2 mph N/A   Overcast
1:35 PM 51.8 °F - 50.0 °F 94% 30.07 in 2.5 mi SSW 16.1 mph - N/A   Overcast
1:55 PM 51.8 °F - 50.0 °F 94% 30.07 in 2.5 mi SSW 13.8 mph 19.6 mph N/A   Overcast
2:15 PM 51.8 °F - 50.0 °F 94% 30.06 in 3.0 mi SSW 13.8 mph 19.6 mph N/A   Overcast
2:35 PM 51.8 °F - 50.0 °F 94% 30.06 in 2.5 mi SSW 12.7 mph 17.3 mph N/A   Overcast
2:55 PM 50.0 °F - 50.0 °F 100% 30.05 in 2.5 mi SSW 12.7 mph - N/A Rain Light Rain
3:15 PM 50.0 °F - 50.0 °F 100% 30.03 in 2.5 mi SSW 9.2 mph 17.3 mph N/A Rain Rain
3:35 PM 50.0 °F - 48.2 °F 94% 30.02 in 2.0 mi SSW 8.1 mph - 0.03 in Rain Light Rain
3:55 PM 50.0 °F - 50.0 °F 100% 30.01 in 2.5 mi SSW 12.7 mph 23.0 mph 0.04 in Rain Light Rain
4:15 PM 50.0 °F - 48.2 °F 94% 30.01 in 2.0 mi SW 10.4 mph 18.4 mph 0.01 in Rain Light Rain
4:35 PM 50.0 °F - 46.4 °F 87% 30.01 in 3.0 mi SSW 12.7 mph - 0.02 in Rain Light Rain
4:55 PM 50.0 °F - 46.4 °F 87% 30.00 in 4.0 mi SSW 10.4 mph - 0.02 in   Overcast
5:15 PM 50.0 °F - 46.4 °F 87% 30.00 in 3.0 mi SSW 13.8 mph 21.9 mph 0.02 in Rain Light Rain
5:35 PM 46.4 °F 39.5 °F 44.6 °F 93% 29.99 in 4.0 mi SSW 17.3 mph 23.0 mph 0.03 in Rain Rain
5:55 PM 46.4 °F 40.1 °F 46.4 °F 100% 29.99 in 4.0 mi SSW 15.0 mph - 0.04 in Rain Light Rain
6:15 PM 46.4 °F 41.5 °F 46.4 °F 100% 29.98 in 3.0 mi South 10.4 mph 17.3 mph 0.01 in Rain Rain
6:35 PM 46.4 °F 41.5 °F 46.4 °F 100% 29.97 in 3.0 mi South 10.4 mph - 0.01 in Rain Light Rain
6:55 PM 46.4 °F 41.9 °F 46.4 °F 100% 29.96 in 4.0 mi South 9.2 mph - 0.02 in Rain Light Rain
7:15 PM 46.4 °F 42.4 °F 44.6 °F 93% 29.93 in 4.0 mi SSE 8.1 mph - 0.01 in Rain Light Rain
7:35 PM 46.4 °F 43.5 °F 44.6 °F 93% 29.92 in 4.0 mi South 5.8 mph - 0.02 in Rain Light Rain
7:55 PM 46.4 °F 44.3 °F 44.6 °F 93% 29.90 in 5.0 mi SE 4.6 mph - 0.04 in Rain Rain
8:15 PM 46.4 °F 44.3 °F 44.6 °F 93% 29.88 in 5.0 mi ESE 4.6 mph - 0.03 in Rain Rain
8:35 PM 46.4 °F 42.4 °F 44.6 °F 93% 29.88 in 4.0 mi SSE 8.1 mph - 0.08 in Rain Rain
8:55 PM 46.4 °F 41.1 °F 46.4 °F 100% 29.85 in 7.0 mi South 11.5 mph - 0.11 in Rain Light Rain
9:15 PM 46.4 °F 41.9 °F 46.4 °F 100% 29.83 in 5.0 mi SE 9.2 mph - N/A   Drizzle
9:35 PM 46.4 °F 42.4 °F 46.4 °F 100% 29.81 in 3.0 mi SE 8.1 mph - 0.01 in   Heavy Drizzle
9:55 PM 46.4 °F 41.1 °F 46.4 °F 100% 29.79 in 3.0 mi SSE 11.5 mph 20.7 mph 0.02 in   Drizzle
10:15 PM 48.2 °F - 46.4 °F 93% 29.77 in 5.0 mi SSE 12.7 mph 16.1 mph 0.01 in Rain Heavy Rain
10:35 PM 48.2 °F - 46.4 °F 93% 29.76 in 4.0 mi SSE 10.4 mph 24.2 mph 0.02 in Rain Light Rain
10:55 PM 50.0 °F - 48.2 °F 94% 29.74 in 4.0 mi South 23.0 mph 33.4 mph 0.03 in Rain Light Rain
11:15 PM 50.0 °F - 48.2 °F 94% 29.73 in 3.0 mi South 31.1 mph 42.6 mph 0.01 in Rain Light Rain
11:35 PM 50.0 °F - 50.0 °F 100% 29.73 in 2.5 mi South 26.5 mph 43.7 mph 0.01 in Rain Rain
11:55 PM 50.0 °F - 50.0 °F 100% 29.72 in 2.5 mi South 32.2 mph 40.3 mph 0.02 in Rain Light Rain